K4FB Weather Reports


time (UTC)temp
F
wind
direction
speed
knots
gust
knots
rain 1hr
in
rain 24hr
in
rain mn
in
humidity
%
barometer
mb
20260507060505 72 186 0.0 0.0 0.00 0.00 0.00 85 1016.5
20260507060011 72 186 0.0 0.0 0.00 0.00 0.00 84 1016.6
20260507055506 72 186 0.0 0.0 0.00 0.00 0.00 84 1016.6
20260507055007 72 186 0.0 0.0 0.00 0.00 0.00 85 1016.5
20260507054515 73 186 0.0 0.9 0.00 0.00 0.00 85 1016.6
20260507054003 73 186 0.0 0.9 0.00 0.00 0.00 85 1016.6
20260507053502 73 186 0.0 2.6 0.00 0.00 0.00 84 1016.6
20260507053006 73 186 0.0 2.6 0.00 0.00 0.00 84 1016.8
20260507052503 74 171 0.0 0.0 0.00 0.00 0.00 83 1016.9
20260507052000 74 171 0.0 0.0 0.00 0.00 0.00 82 1016.9
20260507051504 74 171 0.0 0.0 0.00 0.00 0.00 82 1017.1
20260507051003 74 171 0.0 0.0 0.00 0.00 0.00 81 1017.1
20260507050503 74 171 0.0 3.5 0.00 0.00 0.00 81 1017.1
20260507045503 75 175 0.9 2.6 0.00 0.00 0.00 81 1017.2
20260507045003 75 176 0.0 2.6 0.00 0.00 0.00 80 1017.4
20260507044507 75 175 0.0 0.9 0.00 0.00 0.00 79 1017.3
20260507044002 76 175 0.0 0.9 0.00 0.00 0.00 79 1017.3
20260507043502 76 175 0.0 2.6 0.00 0.00 0.00 79 1017.3
20260507043005 76 175 0.0 2.6 0.00 0.00 0.00 79 1017.3
20260507042503 76 171 0.0 0.0 0.00 0.00 0.00 80 1017.3
20260507042003 76 305 0.0 0.0 0.00 0.00 0.00 80 1017.2
20260507041508 76 306 0.0 0.0 0.00 0.00 0.00 80 1017.1
20260507041003 76 306 0.0 0.0 0.00 0.00 0.00 80 1017.1
20260507040503 75 306 0.0 0.0 0.00 0.00 0.00 80 1017.0
20260507040006 75 244 0.0 0.0 0.00 0.00 0.00 80 1017.2
20260507035503 75 242 0.0 0.0 0.00 0.00 0.00 80 1017.2
20260507035003 75 240 0.0 0.0 0.00 0.00 0.00 80 1017.2
20260507034004 75 240 0.0 0.0 0.00 0.00 0.00 78 1017.1
20260507033504 75 240 0.0 0.0 0.00 0.00 0.00 77 1017.0
20260507033003 75 240 0.0 0.0 0.00 0.00 0.00 77 1016.9
20260507032503 76 240 0.0 0.0 0.00 0.00 0.00 76 1017.0
20260507032002 76 240 0.0 1.7 0.00 0.00 0.00 76 1017.0
20260507031507 76 240 0.0 1.7 0.00 0.00 0.00 1016.9
20260507031003 76 240 0.0 1.7 0.00 0.00 0.00 1016.7
20260507030503 77 239 0.0 3.5 0.00 0.00 0.00 75 1016.8
20260507030004 77 239 1.7 3.5 0.00 0.00 0.00 75 1016.8
20260507025505 77 250 1.7 2.6 0.00 0.00 0.00 74 1016.9
20260507025003 77 261 0.9 6.1 0.00 0.00 0.00 73 1016.7
20260507024508 78 238 0.0 6.1 0.00 0.00 0.00 73 1016.8
20260507024004 78 250 2.6 4.3 0.00 0.00 0.00 72 1016.9
20260507023503 78 244 0.9 4.3 0.00 0.00 0.00 72 1017.1
20260507022503 78 227 1.7 3.5 0.00 0.00 0.00 72 1017.0
20260507022006 78 254 1.7 5.2 0.00 0.00 0.00 71 1017.0
20260507021504 78 254 0.9 5.2 0.00 0.00 0.00 71 1017.0
20260507021007 78 278 1.7 4.3 0.00 0.00 0.00 70 1016.9
20260507020503 78 233 2.6 5.2 0.00 0.00 0.00 69 1016.8
20260507020008 78 242 2.6 5.2 0.00 0.00 0.00 69 1016.8
20260507015506 79 234 2.6 5.2 0.00 0.00 0.00 69 1016.7
20260507015003 79 212 1.7 4.3 0.00 0.00 0.00 68 1016.8
20260507014506 79 246 1.7 6.1 0.00 0.00 0.00 68 1016.7
20260507014004 79 239 1.7 8.7 0.00 0.00 0.00 67 1016.7
20260507013503 80 214 3.5 8.7 0.00 0.00 0.00 66 1016.6
20260507013007 80 275 4.3 7.0 0.00 0.00 0.00 65 1016.6
20260507012503 80 243 3.5 7.0 0.00 0.00 0.00 65 1016.4
20260507012003 80 248 2.6 8.7 0.00 0.00 0.00 65 1016.3
20260507011516 81 240 1.7 9.6 0.00 0.00 0.00 65 1016.3
20260507011002 81 261 3.5 9.6 0.00 0.00 0.00 65 1016.4
20260507010503 81 231 4.3 8.7 0.00 0.00 0.00 65 1016.3
20260507010015 81 245 2.6 9.6 0.00 0.00 0.00 66 1016.2
20260507005504 81 241 4.3 9.6 0.00 0.00 0.00 66 1016.0
20260507005003 81 215 4.3 9.6 0.00 0.00 0.00 66 1015.9
20260507004509 82 221 5.2 9.6 0.00 0.00 0.00 66 1015.9
20260507004005 82 225 3.5 7.8 0.00 0.00 0.00 67 1015.9
20260507003502 83 224 3.5 7.0 0.00 0.00 0.00 66 1015.9
20260507003015 83 238 3.5 8.7 0.00 0.00 0.00 66 1015.7
20260507002504 83 246 2.6 8.7 0.00 0.00 0.00 65 1015.7
20260507002003 84 256 5.2 8.7 0.00 0.00 0.00 65 1015.7
20260507001508 84 215 4.3 8.7 0.00 0.00 0.00 64 1015.7
20260507001004 85 239 3.5 8.7 0.00 0.00 0.00 63 1015.7
20260507000503 86 229 4.3 7.8 0.00 0.00 0.00 62 1015.7
20260507000008 86 238 4.3 8.7 0.00 0.00 0.00 60 1015.6
20260506235504 87 234 3.5 8.7 0.00 0.00 0.00 58 1015.6
20260506235003 88 223 4.3 7.8 0.00 0.00 0.00 57 1015.5
20260506234507 89 260 4.3 7.0 0.00 0.00 0.00 55 1015.3
20260506234003 90 274 1.7 7.0 0.00 0.00 0.00 54 1015.3
20260506233502 91 195 4.3 7.0 0.00 0.00 0.00 39 1015.2
20260506233011 91 196 0.0 2.6 0.00 0.00 0.00 39 1015.2
20260506232505 92 196 0.9 3.5 0.00 0.00 0.00 40 1015.2
20260506232004 92 198 0.9 3.5 0.00 0.00 0.00 36 1015.3
20260506231508 93 193 1.7 5.2 0.00 0.00 0.00 36 1015.3
20260506231005 94 198 2.6 5.2 0.00 0.00 0.00 35 1015.3
20260506230503 96 217 1.7 4.3 0.00 0.00 0.00 34 1015.3
20260506230013 97 136 0.9 4.3 0.00 0.00 0.00 35 1015.2
20260506225503 98 192 0.9 4.3 0.00 0.00 0.00 32 1015.3
20260506225004 99 167 1.7 4.3 0.00 0.00 0.00 34 1015.4
20260506224511 99 220 0.0 1.7 0.00 0.00 0.00 35 1015.3
20260506224003 99 220 0.0 2.6 0.00 0.00 0.00 32 1015.4
20260506222504 100 209 3.5 6.1 0.00 0.00 0.00 31 1015.5
20260506222005 101 190 0.9 3.5 0.00 0.00 0.00 32 1015.5
20260506221510 100 156 0.0 2.6 0.00 0.00 0.00 32 1015.5
20260506220012 101 232 1.7 4.3 0.00 0.00 0.00 32 1015.5
20260506215506 101 142 0.9 4.3 0.00 0.00 0.00 32 1015.5
20260506215002 101 107 2.6 5.2 0.00 0.00 0.00 32 1015.5
20260506214518 101 135 0.9 5.2 0.00 0.00 0.00 33 1015.5
20260506214007 101 148 0.9 7.0 0.00 0.00 0.00 33 1015.5
20260506213503 101 154 3.5 7.0 0.00 0.00 0.00 32 1015.5
20260506213013 101 200 2.6 5.2 0.00 0.00 0.00 32 1015.6
20260506212004 100 225 1.7 7.8 0.00 0.00 0.00 32 1015.6
20260506211510 99 204 0.9 8.7 0.00 0.00 0.00 36 1015.6
20260506210505 99 220 2.6 10.4 0.00 0.00 0.00 32 1015.5
20260506210008 99 192 4.3 10.4 0.00 0.00 0.00 34 1015.4
20260506205003 99 213 4.3 8.7 0.00 0.00 0.00 36 1015.5
20260506204515 99 233 4.3 12.2 0.00 0.00 0.00 38 1015.5
20260506204003 99 209 6.1 12.2 0.00 0.00 0.00 34 1015.5
20260506203502 99 215 2.6 7.0 0.00 0.00 0.00 35 1015.6
20260506203015 99 329 1.7 6.1 0.00 0.00 0.00 35 1015.6
20260506202503 99 305 0.9 7.0 0.00 0.00 0.00 37 1015.7
20260506202007 99 265 3.5 8.7 0.00 0.00 0.00 38 1015.8
20260506201515 99 207 0.9 8.7 0.00 0.00 0.00 38 1015.7
20260506201003 99 215 3.5 7.0 0.00 0.00 0.00 42 1015.7
20260506200502 98 169 3.5 8.7 0.00 0.00 0.00 40 1015.8
20260506200015 98 182 1.7 8.7 0.00 0.00 0.00 37 1015.8
20260506195007 98 188 6.1 10.4 0.00 0.00 0.00 36 1015.7
20260506194514 99 192 2.6 10.4 0.00 0.00 0.00 41 1015.7
20260506193506 98 216 1.7 9.6 0.00 0.00 0.00 41 1016.0
20260506193012 99 213 5.2 9.6 0.00 0.00 0.00 41 1016.1
20260506192506 98 235 3.5 7.8 0.00 0.00 0.00 42 1016.1
20260506192006 98 233 1.7 9.6 0.00 0.00 0.00 41 1016.1
20260506191514 97 191 5.2 9.6 0.00 0.00 0.00 40 1016.2
20260506191006 97 235 2.6 7.8 0.00 0.00 0.00 43 1016.3
20260506190506 97 225 3.5 8.7 0.00 0.00 0.00 44 1016.4
20260506190008 96 110 1.7 8.7 0.00 0.00 0.00 43 1016.5
20260506185009 96 188 5.2 9.6 0.00 0.00 0.00 44 1016.6
20260506184522 96 224 5.2 9.6 0.00 0.00 0.00 45 1016.7
20260506184007 96 322 0.0 10.4 0.00 0.00 0.00 42 1016.8
20260506181007 95 185 3.5 5.2 0.00 0.00 0.00 47 1017.0
20260506180506 94 297 1.7 9.6 0.00 0.00 0.00 48 1017.1
20260506180016 94 52 2.6 9.6 0.00 0.00 0.00 49 1017.2
20260506175506 94 215 1.7 7.8 0.00 0.00 0.00 49 1017.2
20260506175006 94 229 2.6 10.4 0.00 0.00 0.00 51 1017.3
20260506174513 94 196 6.1 10.4 0.00 0.00 0.00 46 1017.3
20260506174007 93 216 1.7 10.4 0.00 0.00 0.00 49 1017.4
20260506173510 94 196 5.2 12.2 0.00 0.00 0.00 47 1017.5
20260506173009 93 173 3.5 12.2 0.00 0.00 0.00 50 1017.5
20260506172503 93 298 3.5 7.8 0.00 0.00 0.00 53 1017.5
20260506171507 92 189 2.6 9.6 0.00 0.00 0.00 50 1017.7
20260506171003 91 189 2.6 11.3 0.00 0.00 0.00 52 1017.7
20260506170512 91 215 4.3 11.3 0.00 0.00 0.00 48 1017.7
20260506170009 91 104 1.7 9.6 0.00 0.00 0.00 50 1017.8
20260506165503 91 163 3.5 9.6 0.00 0.00 0.00 52 1017.8
20260506165005 91 113 2.6 11.3 0.00 0.00 0.00 55 1018.0
20260506164512 90 215 3.5 11.3 0.00 0.00 0.00 56 1018.0
20260506164002 90 185 2.6 9.6 0.00 0.00 0.00 50 1017.9
20260506163014 91 188 3.5 8.7 0.00 0.00 0.00 52 1018.0
20260506162510 91 217 4.3 9.6 0.00 0.00 0.00 52 1018.0
20260506162006 90 236 4.3 9.6 0.00 0.00 0.00 52 1018.0
20260506161515 90 182 3.5 9.6 0.00 0.00 0.00 51 1017.9
20260506160011 89 171 4.3 12.2 0.00 0.00 0.00 56 1018.0
20260506155507 89 176 6.1 10.4 0.00 0.00 0.00 56 1017.9
20260506155007 89 128 0.0 8.7 0.00 0.00 0.00 58 1018.0
20260506154506 89 146 3.5 8.7 0.00 0.00 0.00 55 1018.0
20260506154003 89 142 1.7 8.7 0.00 0.00 0.00 57 1018.0
20260506153503 88 155 3.5 9.6 0.00 0.00 0.00 56 1018.1
20260506153015 88 153 4.3 10.4 0.00 0.00 0.00 57 1018.2
20260506152503 88 206 3.5 10.4 0.00 0.00 0.00 56 1018.2
20260506151516 87 139 5.2 11.3 0.00 0.00 0.00 60 1018.1
20260506151003 86 199 2.6 11.3 0.00 0.00 0.00 59 1018.1
20260506150505 86 160 3.5 9.6 0.00 0.00 0.00 62 1018.1
20260506150022 85 157 2.6 9.6 0.00 0.00 0.00 62 1018.1
20260506145509 85 188 3.5 8.7 0.00 0.00 0.00 63 1018.1
20260506145003 85 188 3.5 7.8 0.00 0.00 0.00 64 1018.1
20260506144535 85 163 2.6 7.0 0.00 0.00 0.00 67 1018.1
20260506144007 84 188 2.6 7.0 0.00 0.00 0.00 69 1018.3
20260506143504 84 176 2.6 6.1 0.00 0.00 0.00 70 1018.2
20260506143013 83 160 1.7 7.8 0.00 0.00 0.00 70 1018.2
20260506142505 83 205 4.3 7.8 0.00 0.00 0.00 71 1018.2
20260506142008 82 175 1.7 6.1 0.00 0.00 0.00 70 1018.3
20260506141512 82 123 3.5 7.8 0.00 0.00 0.00 72 1018.3
20260506141009 81 159 2.6 8.7 0.00 0.00 0.00 72 1018.4
20260506140028 80 190 1.7 9.6 0.00 0.00 0.00 74 1018.2
20260506135504 80 142 3.5 9.6 0.00 0.00 0.00 75 1018.2
20260506134003 78 201 3.5 9.6 0.00 0.00 0.00 80 1018.2
20260506133509 78 62 1.7 7.8 0.00 0.00 0.00 81 1018.3
20260506133020 77 164 3.5 7.8 0.00 0.00 0.00 81 1018.2
20260506132511 76 148 1.7 6.1 0.00 0.00 0.00 83 1018.1
20260506132005 76 123 1.7 6.1 0.00 0.00 0.00 85 1018.1
20260506131523 75 80 2.6 7.0 0.00 0.00 0.00 86 1018.0
20260506130503 73 156 1.7 6.1 0.00 0.00 0.00 89 1018.0
20260506130018 72 165 2.6 6.1 0.00 0.00 0.00 90 1017.9
20260506125506 72 205 1.7 7.8 0.00 0.00 0.00 91 1017.8
20260506125008 71 144 3.5 7.8 0.00 0.00 0.00 91 1017.7
20260506124515 70 130 1.7 7.0 0.00 0.00 0.00 93 1017.7
20260506124008 69 117 2.6 5.2 0.00 0.00 0.00 93 1017.7
20260506123508 69 152 0.9 4.3 0.00 0.00 0.00 94 1017.8
20260506123015 68 140 0.9 2.6 0.00 0.00 0.00 95 1017.7
20260506122507 67 148 0.9 2.6 0.00 0.00 0.00 95 1017.7
20260506122007 67 129 0.0 3.5 0.00 0.00 0.00 96 1017.7
20260506121523 66 167 0.0 3.5 0.00 0.00 0.00 96 1017.6
20260506120507 64 154 0.0 1.7 0.00 0.00 0.00 95 1017.5
20260506120023 64 85 0.0 0.0 0.00 0.00 0.00 94 1017.6
20260506115509 64 85 0.0 0.0 0.00 0.00 0.00 94 1017.5
20260506114521 63 85 0.0 0.0 0.00 0.00 0.00 94 1017.5
20260506114012 63 85 0.0 0.0 0.00 0.00 0.00 94 1017.4
20260506113507 62 85 0.0 0.0 0.00 0.00 0.00 94 1017.4
20260506113020 62 85 0.0 0.0 0.00 0.00 0.00 94 1017.2
20260506112508 61 85 0.0 0.0 0.00 0.00 0.00 94 1017.2
20260506112007 61 85 0.0 0.0 0.00 0.00 0.00 93 1017.1
20260506111518 61 85 0.0 0.0 0.00 0.00 0.00 93 1017.1
20260506111015 61 85 0.0 0.0 0.00 0.00 0.00 93 1017.1
20260506110513 61 85 0.0 0.0 0.00 0.00 0.00 93 1017.2
20260506110014 61 85 0.0 0.0 0.00 0.00 0.00 93 1017.1
20260506104524 61 85 0.0 0.0 0.00 0.00 0.00 92 1016.7
20260506104007 61 85 0.0 0.0 0.00 0.00 0.00 92 1016.7
20260506103025 61 85 0.0 0.0 0.00 0.00 0.00 92 1016.6
20260506102507 61 85 0.0 0.0 0.00 0.00 0.00 92 1016.6
20260506101529 61 85 0.0 0.0 0.00 0.00 0.00 91 1016.7
20260506101012 61 85 0.0 0.0 0.00 0.00 0.00 91 1016.7
20260506100505 61 85 0.0 0.0 0.00 0.00 0.00 91 1016.7
20260506100024 62 85 0.0 0.0 0.00 0.00 0.00 91 1016.7
20260506095510 62 85 0.0 0.0 0.00 0.00 0.00 91 1016.7
20260506095010 62 85 0.0 0.0 0.00 0.00 0.00 91 1016.6
20260506094008 62 85 0.0 0.0 0.00 0.00 0.00 91 1016.6
20260506093509 62 85 0.0 0.0 0.00 0.00 0.00 91 1016.5
20260506093030 62 85 0.0 0.0 0.00 0.00 0.00 91 1016.5
20260506092011 62 85 0.0 0.0 0.00 0.00 0.00 91 1016.4
20260506091524 62 85 0.0 0.0 0.00 0.00 0.00 91 1016.4
20260506091012 62 85 0.0 0.0 0.00 0.00 0.00 91 1016.3
20260506090513 62 85 0.0 0.0 0.00 0.00 0.00 91 1016.4
20260506090029 62 85 0.0 0.0 0.00 0.00 0.00 91 1016.3
20260506085511 62 85 0.0 0.0 0.00 0.00 0.00 91 1016.4
20260506085008 62 85 0.0 0.0 0.00 0.00 0.00 91 1016.3
20260506084536 62 85 0.0 0.0 0.00 0.00 0.00 91 1016.5
20260506084004 62 85 0.0 0.0 0.00 0.00 0.00 91 1016.5
20260506083007 62 85 0.0 0.0 0.00 0.00 0.00 91 1016.5
20260506082508 62 85 0.0 0.0 0.00 0.00 0.00 91 1016.4
20260506082009 62 85 0.0 0.0 0.00 0.00 0.00 91 1016.5
20260506081507 62 85 0.0 0.0 0.00 0.00 0.00 90 1016.7
20260506081003 62 85 0.0 0.0 0.00 0.00 0.00 90 1016.7
20260506080504 62 85 0.0 0.0 0.00 0.00 0.00 89 1016.5
20260506073504 62 85 0.0 0.0 0.00 0.00 0.00 89 1016.5
20260506073018 62 85 0.0 0.0 0.00 0.00 0.00 89 1016.6
20260506072509 62 85 0.0 0.0 0.00 0.00 0.00 89 1016.7
20260506072004 63 85 0.0 0.0 0.00 0.00 0.00 88 1016.7
20260506071517 63 85 0.0 0.0 0.00 0.00 0.00 88 1016.7
20260506071007 63 85 0.0 0.0 0.00 0.00 0.00 88 1016.8
20260506062502 63 85 0.0 0.0 0.00 0.00 0.00 88 1017.1
20260506062008 63 85 0.0 0.0 0.00 0.00 0.00 88 1017.2
20260506061518 63 85 0.0 0.0 0.00 0.00 0.00 88 1017.2
20260506061004 63 85 0.0 0.0 0.00 0.00 0.00 88 1017.2